Location: *
(40.9167°N, 9.5000°E)
Time: 03:19:43
(UTC+00:00)

USA 186 - Pass Details

Date: 09 April 2020
Orbit: 263 x 445 km, 96.9° (Epoch: 31 May)

Event Time Altitude Azimuth Distance (km) Brightness Sun altitude
Rises 18:05:09 0° 133° (SE) 2,412 5.1 -2.6°
Reaches altitude 10° 18:07:41 10° 112° (ESE) 1,523 3.9 -3.0°
Drops below altitude 10° 18:11:58 10° 29° (NNE) 1,475 4.4 -3.8°
Enters shadow 19:09:50 -59° 171° (S) 11,332 8.9 -14.1°
Maximum altitude 19:40:39 22° 264° (W) 966 4.2 -19.3°
